TimeEST,TemperatureF,Dew PointF,Humidity,Sea Level PressureIn,VisibilityMPH,Wind Direction,Wind SpeedMPH,Gust SpeedMPH,PrecipitationIn,Events,Conditions,WindDirDegrees,DateUTC
12:54 AM,41.0,37.0,86,30.27,10.0,NNE,3.5,-,0.04,Rain,Light Rain,20,2013-01-15 05:54:00
1:54 AM,39.0,35.1,86,30.27,10.0,NNE,6.9,-,0.03,Rain,Light Rain,20,2013-01-15 06:54:00
2:50 AM,37.4,33.8,87,30.25,10.0,NNE,12.7,-,0.00,Rain,Light Rain,30,2013-01-15 07:50:00
2:54 AM,37.0,32.0,82,30.26,10.0,NE,10.4,-,0.00,Rain,Light Rain,50,2013-01-15 07:54:00
3:07 AM,37.4,33.8,87,30.23,10.0,East,4.6,-,0.00,,Overcast,100,2013-01-15 08:07:00
3:54 AM,37.0,32.0,82,30.27,10.0,NNE,6.9,-,0.00,,Overcast,20,2013-01-15 08:54:00
4:45 AM,37.4,32.0,81,30.25,10.0,Calm,Calm,-,N/A,,Overcast,0,2013-01-15 09:45:00
4:54 AM,37.0,33.1,86,30.28,10.0,Calm,Calm,-,N/A,,Overcast,0,2013-01-15 09:54:00
5:54 AM,37.0,33.1,86,30.29,10.0,Calm,Calm,-,N/A,,Overcast,0,2013-01-15 10:54:00
6:17 AM,37.4,33.8,87,30.28,10.0,NNE,3.5,-,N/A,,Overcast,20,2013-01-15 11:17:00
6:54 AM,37.0,30.0,76,30.31,10.0,NNE,4.6,-,N/A,,Overcast,30,2013-01-15 11:54:00
7:54 AM,37.0,28.0,70,30.34,10.0,North,6.9,-,N/A,,Overcast,10,2013-01-15 12:54:00
8:54 AM,37.0,28.0,70,30.36,10.0,North,6.9,-,N/A,,Mostly Cloudy,10,2013-01-15 13:54:00
9:54 AM,36.0,26.1,67,30.37,10.0,NNE,10.4,-,N/A,,Overcast,20,2013-01-15 14:54:00
10:54 AM,36.0,26.1,67,30.36,10.0,NE,6.9,-,N/A,,Overcast,50,2013-01-15 15:54:00
11:54 AM,37.0,26.1,65,30.33,10.0,Variable,4.6,-,N/A,,Overcast,0,2013-01-15 16:54:00
12:54 PM,37.0,27.0,67,30.31,10.0,North,8.1,-,N/A,,Overcast,350,2013-01-15 17:54:00
1:54 PM,37.0,26.1,65,30.29,10.0,North,5.8,-,N/A,,Overcast,10,2013-01-15 18:54:00
2:54 PM,37.9,25.0,60,30.28,10.0,North,5.8,-,N/A,,Overcast,360,2013-01-15 19:54:00
3:54 PM,37.9,25.0,60,30.29,10.0,NNE,5.8,-,N/A,,Overcast,20,2013-01-15 20:54:00
4:54 PM,37.0,26.1,65,30.28,10.0,ENE,4.6,-,N/A,,Overcast,70,2013-01-15 21:54:00
5:54 PM,37.9,25.0,60,30.29,10.0,North,3.5,-,N/A,,Overcast,10,2013-01-15 22:54:00
6:54 PM,37.9,26.1,62,30.29,10.0,Calm,Calm,-,N/A,,Overcast,0,2013-01-15 23:54:00
7:54 PM,37.9,25.0,60,30.28,10.0,Calm,Calm,-,N/A,,Overcast,0,2013-01-16 00:54:00
8:54 PM,37.0,27.0,67,30.25,10.0,ENE,3.5,-,0.00,Rain,Light Rain,70,2013-01-16 01:54:00
9:54 PM,36.0,30.0,79,30.26,9.0,Calm,Calm,-,0.02,Rain,Light Rain,0,2013-01-16 02:54:00
10:54 PM,34.0,32.0,92,30.24,6.0,Calm,Calm,-,0.05,Rain,Light Rain,0,2013-01-16 03:54:00
11:54 PM,35.1,33.1,92,30.22,3.0,Calm,Calm,-,0.09,Rain,Rain,0,2013-01-16 04:54:00